Weather reports worldwide

Advertisment
Gueret-St Laurent, France (7361): temperature & dewpoint: 08.11.2018 13:00:00 - 14.11.2018 13:00:00 (CET)Gueret-St Laurent, France (7361): temperature 5cm: 08.11.2018 13:00:00 - 14.11.2018 13:00:00 (CET)Gueret-St Laurent, France (7361): temperature -20cm & temperature -100cm: 08.11.2018 13:00:00 - 14.11.2018 13:00:00 (CET)Gueret-St Laurent, France (7361): wind speed & gusts: 08.11.2018 13:00:00 - 14.11.2018 13:00:00 (CET)Gueret-St Laurent, France (7361): wind direction: 08.11.2018 13:00:00 - 14.11.2018 13:00:00 (CET)Gueret-St Laurent, France (7361): reduced air pressure: 08.11.2018 13:00:00 - 14.11.2018 13:00:00 (CET)Gueret-St Laurent, France (7361): visibility: 08.11.2018 13:00:00 - 14.11.2018 13:00:00 (CET)Gueret-St Laurent, France (7361): sunshine duration: 08.11.2018 13:00:00 - 14.11.2018 13:00:00 (CET)Gueret-St Laurent, France (7361): precipitation: 08.11.2018 13:00:00 - 14.11.2018 13:00:00 (CET)
Date & Time tt [°C] td [°C] tt 5cm [°C] tt -20cm [°C] tt -100cm [°C] ff [km/h] ff [kn] fx [km/h] fx [kn] dd ppp [hPa] vv [km] sd [min] rr [mm]
14.11.2018 13:00:00 18,1 10,0 24,3 11,7 13,8 5 3 10 5 E 1022,8 20 60 0,0
14.11.2018 12:00:00 16,9 11,2 20,6 11,7 13,8 3 2 9 5 SE 1023,9 18 60 0,0
14.11.2018 11:00:00 13,2 9,8 16,1 11,8 13,8 5 3 12 6 ESE 1025,2 20 60 0,0
14.11.2018 10:00:00 9,7 8,6 9,2 11,8 13,8 6 4 12 6 ESE 1025,8 20 60 0,0
14.11.2018 09:00:00 6,3 6,0 1,3 11,9 13,8 4 2 8 5 ESE 1026,8 18 44 0,0
14.11.2018 08:00:00 3,3 2,7 0,9 11,9 13,8 3 2 7 4 E 1027,2 0,9 0 0,0
14.11.2018 07:00:00 4,1 3,7 0,8 11,9 13,8 4 2 6 4 SSE 1027,0 1,4 0 0,0
14.11.2018 06:00:00 4,7 4,3 1,6 12,0 13,8 3 1 7 4 ESE 1027,1 0,4 0 0,0
14.11.2018 05:00:00 5,2 4,6 2,2 12,0 13,8 4 2 6 3 SSE 1027,2 0,8 0 0,0
14.11.2018 04:00:00 6,8 6,4 4,6 12,0 13,8 2 1 5 3 SE 1027,4 0,1 0 0,0
14.11.2018 03:00:00 8,1 7,7 5,9 12,0 13,8 4 2 9 5 S 1027,7 0,2 0 0,0
14.11.2018 02:00:00 9,1 8,6 8,5 12,1 13,8 5 3 15 8 ESE 1027,5 7 0 0,0
14.11.2018 01:00:00 9,1 8,6 8,0 12,1 13,8 8 4 14 8 ESE 1028,0 6 0 0,0
14.11.2018 00:00:00 7,8 7,5 5,0 12,2 13,8 6 4 14 7 ESE 1028,7 12 0 0,0
13.11.2018 23:00:00 4,8 4,4 2,0 12,1 13,8 2 1 5 3 ESE 1029,4 9 0 0,0
13.11.2018 22:00:00 4,2 3,5 1,2 12,2 13,8 3 2 5 3 SE 1030,1 3,5 0 0,0
13.11.2018 21:00:00 4,3 3,7 1,3 12,1 13,8 2 1 8 4 SSE 1030,3 6 0 0,0
13.11.2018 20:00:00 5,4 4,5 1,6 12,1 13,8 0 0 6 3 N 1030,3 2,6 0 0,0
13.11.2018 19:00:00 6,9 5,8 3,2 12,1 13,8 3 1 5 3 SSW 1029,9 20 0 0,0
13.11.2018 18:00:00 8,8 6,2 4,1 12,0 13,8 0 0 5 3 N 1029,7 20 0 0,0
13.11.2018 17:00:00 11,9 6,6 8,0 12,0 13,8 3 1 10 6 E 1028,9 20 20 0,0
13.11.2018 16:00:00 13,7 8,1 14,7 12,0 13,8 8 5 15 8 ENE 1028,5 20 60 0,0
13.11.2018 15:00:00 14,2 7,7 16,8 12,0 13,8 2 1 8 4 W 1028,6 20 56 0,2
13.11.2018 14:00:00 12,7 7,4 19,6 12,0 13,8 4 2 9 5 N 1029,3 20 60 0,0
13.11.2018 13:00:00 12,4 9,0 13,8 12,0 13,8 4 2 9 5 E 1029,3 20 25 0,0
13.11.2018 12:00:00 10,9 8,3 12,0 12,0 13,8 5 3 10 6 S 1029,7 20 4 0,0
13.11.2018 11:00:00 9,8 9,2 11,2 12,0 13,8 4 2 10 5 E 1029,8 20 24 0,0
13.11.2018 10:00:00 9,1 8,8 6,9 12,0 13,8 0 0 4 2 N 1029,4 15 14 0,0
13.11.2018 09:00:00 6,9 6,5 5,9 12,0 13,8 5 3 6 3 SSE 1029,2 0,3 0 0,0
13.11.2018 08:00:00 7,3 6,7 4,6 12,0 13,8 0 0 0 0 N 1028,1 0,1 0 0,0
13.11.2018 07:00:00 8,7 8,2 7,9 12,0 13,8 0 0 3 2 N 1027,0 0,4 0 0,0
13.11.2018 06:00:00 9,0 8,5 8,1 12,0 13,8 0 0 4 2 N 1026,3 0,3 0 0,0
13.11.2018 05:00:00 9,3 8,8 8,6 12,0 13,8 0 0 5 3 N 1025,7 0,5 0 0,0
13.11.2018 04:00:00 9,6 9,1 8,9 12,0 13,8 4 2 6 3 ESE 1024,8 4,0 0 0,4
13.11.2018 03:00:00 9,7 9,2 9,3 12,0 13,8 0 0 5 3 N 1024,4 10 0 0,4
13.11.2018 02:00:00 9,7 9,2 9,4 12,0 13,8 4 2 5 3 ENE 1023,3 8 0 1,0
13.11.2018 01:00:00 9,9 9,4 9,6 12,0 13,8 2 1 7 4 NE 1022,8 16 0 1,6
13.11.2018 00:00:00 9,9 9,3 9,7 12,0 13,8 0 0 11 6 N 1022,4 8 0 1,8
12.11.2018 23:00:00 10,3 9,7 10,0 11,9 13,8 4 2 15 8 NNW 1021,2 7 0 4,6
12.11.2018 22:00:00 11,0 10,4 10,7 11,9 13,8 4 2 10 6 NW 1020,2 8 0 3,1
12.11.2018 21:00:00 11,3 10,7 10,8 11,9 13,8 3 2 7 4 NW 1019,9 2,7 0 3,0
12.11.2018 20:00:00 11,3 10,7 10,9 11,8 13,8 3 1 6 3 ESE 1019,3 6 0 0,2
12.11.2018 19:00:00 11,4 10,6 11,0 11,8 13,8 0 0 4 2 N 1019,4 15 0 0,2
12.11.2018 18:00:00 11,5 10,9 11,1 11,7 13,8 3 2 7 4 NW 1018,2 12 0 0,0
12.11.2018 17:00:00 11,5 10,7 11,5 11,7 13,8 3 2 15 8 N 1018,0 14 0 0,0
12.11.2018 16:00:00 12,0 10,9 12,3 11,7 13,8 7 4 16 9 NNW 1017,1 16 0 0,0
12.11.2018 15:00:00 14,3 12,3 15,1 11,6 13,8 7 4 16 8 NNW 1016,1 20 6 0,0
12.11.2018 14:00:00 14,3 12,3 14,1 11,5 13,8 9 5 17 9 NNW 1015,8 20 4 0,0
12.11.2018 13:00:00 15,8 11,4 14,0 11,5 13,8 10 5 48 26 WSW 1015,3 18 0 0,8
12.11.2018 12:00:00 18,0 10,1 18,2 11,5 13,8 24 13 47 26 S 1014,5 20 28 0,0
12.11.2018 11:00:00 19,1 10,9 17,9 11,5 13,8 22 12 41 22 SSW 1013,8 20 48 0,0
12.11.2018 10:00:00 17,8 10,7 17,0 11,5 13,8 21 12 47 25 SSW 1013,3 20 29 0,0
12.11.2018 09:00:00 17,4 10,7 15,1 11,5 13,8 17 9 38 20 S 1012,3 20 15 0,0
12.11.2018 08:00:00 16,3 10,2 14,3 11,5 13,8 18 10 42 23 S 1011,3 20 0 0,0
12.11.2018 07:00:00 16,1 10,2 13,8 11,5 13,8 20 11 43 23 S 1010,1 20 0 0,0
12.11.2018 06:00:00 15,4 10,0 10,9 11,6 13,8 15 8 33 18 S 1009,7 20 0 0,0
12.11.2018 05:00:00 11,9 11,4 4,3 11,6 13,9 9 5 21 11 SSE 1009,7 20 0 0,0
12.11.2018 04:00:00 8,4 7,3 4,1 11,5 13,9 5 3 8 4 E 1010,1 20 0 0,0
12.11.2018 03:00:00 8,6 6,6 5,3 11,6 13,9 6 3 10 5 E 1010,1 20 0 0,0
12.11.2018 02:00:00 10,9 8,5 7,3 11,5 13,9 4 2 7 4 ESE 1009,9 20 0 0,0
12.11.2018 01:00:00 12,8 8,7 8,3 11,5 13,9 4 2 11 6 ESE 1009,8 20 0 0,0
12.11.2018 00:00:00 13,4 9,1 10,4 11,5 13,9 2 1 7 4 SE 1010,0 20 0 0,0
11.11.2018 23:00:00 13,8 9,4 11,8 11,5 13,9 0 0 11 6 N 1010,4 20 0 0,0
11.11.2018 22:00:00 14,0 10,2 9,8 11,4 13,9 7 4 13 7 SE 1010,2 20 0 0,0
11.11.2018 21:00:00 13,3 9,9 10,3 11,4 13,9 3 2 8 4 SSE 1010,5 20 0 0,0
11.11.2018 20:00:00 13,8 9,2 12,0 11,3 13,9 7 4 12 7 ESE 1010,7 20 0 0,0
11.11.2018 19:00:00 14,7 8,6 9,8 11,3 13,9 4 2 11 6 SE 1010,9 20 0 0,0
11.11.2018 18:00:00 14,8 7,6 11,0 11,2 13,9 5 3 16 9 S 1010,6 20 0 0,0
11.11.2018 17:00:00 17,1 6,9 15,2 11,2 13,9 8 5 34 18 SW 1009,4 20 20 0,0
11.11.2018 16:00:00 18,2 6,4 17,3 11,1 13,9 20 11 52 28 SSW 1008,6 20 37 0,0
11.11.2018 15:00:00 18,9 6,7 19,9 11,1 13,9 14 8 35 19 SSW 1008,0 20 57 0,0
11.11.2018 14:00:00 18,2 6,7 19,0 11,1 13,9 17 9 53 28 SSW 1008,4 20 43 0,0
11.11.2018 13:00:00 18,6 6,4 20,6 11,1 13,9 26 14 61 33 SSW 1008,0 20 60 0,0
11.11.2018 12:00:00 18,0 7,1 20,1 11,1 13,9 22 12 47 26 S 1008,3 20 60 0,0
11.11.2018 11:00:00 16,4 8,6 17,8 11,2 13,9 11 6 24 13 SE 1008,8 20 60 0,0
11.11.2018 10:00:00 12,9 9,0 12,6 11,2 13,9 9 5 17 9 ESE 1009,5 20 60 0,0
11.11.2018 09:00:00 9,9 7,1 6,6 11,2 13,9 13 7 23 12 ESE 1009,5 20 27 0,0
11.11.2018 08:00:00 7,8 6,3 6,4 11,3 13,9 9 5 21 11 E 1009,6 20 0 0,0
11.11.2018 07:00:00 7,6 5,9 6,3 11,2 13,9 10 5 22 12 SE 1009,5 20 0 0,0
11.11.2018 06:00:00 8,1 6,2 6,3 11,2 13,9 13 7 20 11 ESE 1009,4 20 0 0,0
11.11.2018 05:00:00 8,2 6,5 6,3 11,3 13,9 13 7 23 12 E 1009,2 20 0 0,0
11.11.2018 04:00:00 10,0 6,9 6,0 11,3 13,9 13 7 32 17 SSE 1009,2 20 0 0,0
11.11.2018 03:00:00 8,3 6,8 6,5 11,3 14,0 8 4 24 13 ESE 1009,3 20 0 0,0
11.11.2018 02:00:00 10,1 6,8 8,2 11,3 13,9 11 6 25 14 S 1008,7 20 0 0,0
11.11.2018 01:00:00 10,4 7,3 9,1 11,3 13,9 15 8 25 14 S 1008,4 20 0 0,0
11.11.2018 00:00:00 10,2 8,3 9,1 11,3 14,0 11 6 35 19 SSE 1008,7 20 0 0,4
10.11.2018 23:00:00 10,5 8,4 8,9 11,3 13,9 13 7 26 14 SSW 1009,0 17 0 0,8
10.11.2018 22:00:00 10,5 7,7 9,0 11,3 14,0 11 6 29 16 S 1008,4 20 0 0,2
10.11.2018 21:00:00 10,8 7,7 9,4 11,3 14,0 12 6 33 18 S 1007,8 20 0 0,0
10.11.2018 20:00:00 10,2 7,3 8,1 11,2 14,0 15 8 29 16 S 1007,2 20 0 0,0
10.11.2018 19:00:00 9,4 7,3 4,0 11,2 14,0 12 7 23 13 S 1007,5 20 0 0,0
10.11.2018 18:00:00 8,6 6,6 5,5 11,1 14,0 3 1 23 12 SSE 1006,8 20 1 0,0
10.11.2018 17:00:00 10,7 7,6 9,5 11,1 14,0 9 5 32 17 S 1006,4 20 24 0,2
10.11.2018 16:00:00 11,1 8,1 10,5 11,0 14,0 18 10 34 18 S 1006,1 20 0 0,2
10.11.2018 15:00:00 11,2 8,9 10,6 11,0 14,0 6 3 26 14 SW 1006,2 12 0 2,0
10.11.2018 14:00:00 11,8 10,2 11,3 11,0 14,0 9 5 23 13 SSW 1006,0 9 0 2,2
10.11.2018 13:00:00 12,1 9,5 11,3 11,0 14,0 11 6 29 15 S 1005,8 15 1 0,4
10.11.2018 12:00:00 12,8 9,2 11,4 11,0 14,0 18 10 33 18 S 1005,5 20 7 0,2
10.11.2018 11:00:00 11,9 9,3 10,6 11,0 14,0 15 8 32 17 SSE 1006,3 20 10 0,2
10.11.2018 10:00:00 10,7 9,5 10,0 11,0 14,0 10 5 23 12 SSE 1006,9 9 0 1,0
10.11.2018 09:00:00 10,6 8,7 9,4 11,0 14,1 14 7 24 13 S 1007,0 12 0 0,2
10.11.2018 08:00:00 10,4 8,5 9,2 11,0 14,0 13 7 34 19 S 1007,0 9 0 0,8
10.11.2018 07:00:00 11,0 7,7 9,6 11,0 14,1 16 8 31 17 S 1006,5 20 0 0,0
10.11.2018 06:00:00 10,7 7,6 9,1 11,0 14,1 9 5 25 13 SSE 1006,8 20 0 0,4
10.11.2018 05:00:00 10,8 7,8 9,1 11,0 14,1 18 10 43 23 S 1006,6 20 0 0,6
10.11.2018 04:00:00 12,2 5,6 11,4 10,9 14,0 22 12 48 26 S 1006,5 20 0 0,0
10.11.2018 03:00:00 12,1 5,5 10,0 11,0 14,1 23 13 43 23 S 1006,8 20 0 0,0
10.11.2018 02:00:00 12,6 5,0 11,3 10,9 14,1 15 8 41 22 S 1007,0 20 0 0,0
10.11.2018 01:00:00 11,9 5,5 10,7 11,0 14,1 13 7 45 25 SSE 1007,5 20 0 0,0
10.11.2018 00:00:00 11,4 5,9 9,4 10,9 14,1 11 6 26 14 S 1008,4 20 0 0,0
09.11.2018 23:00:00 10,3 6,6 8,2 10,9 14,1 5 3 29 16 ESE 1009,6 20 0 0,0
09.11.2018 22:00:00 9,3 6,7 6,6 10,9 14,1 10 6 18 10 ESE 1009,8 20 0 0,0
09.11.2018 21:00:00 10,3 7,0 8,5 10,9 14,1 16 9 27 15 SE 1010,1 20 0 0,0
09.11.2018 20:00:00 10,3 7,4 6,2 10,9 14,1 10 5 18 10 S 1011,7 20 0 0,0
09.11.2018 19:00:00 9,3 7,6 4,7 10,8 14,1 5 3 10 5 SSW 1011,9 20 0 0,0
09.11.2018 18:00:00 10,0 6,9 5,5 10,7 14,1 3 2 10 6 WSW 1011,8 20 0 0,0
09.11.2018 17:00:00 12,3 7,2 10,8 10,7 14,1 7 4 16 8 S 1011,4 20 35 0,0
09.11.2018 16:00:00 13,8 7,6 14,4 10,7 14,1 8 4 21 11 SW 1011,9 20 44 0,0
09.11.2018 15:00:00 14,7 6,3 15,4 10,6 14,1 12 7 21 11 SSW 1012,3 20 0 0,0
09.11.2018 14:00:00 14,6 5,9 15,6 10,7 14,1 11 6 18 10 S 1012,4 20 0 0,0
09.11.2018 13:00:00 14,5 7,1 16,6 10,7 14,1 6 4 14 8 SSE 1012,9 20 23 0,0
09.11.2018 12:00:00 14,5 7,5 15,6 10,7 14,1 6 3 15 8 S 1013,2 20 30 0,0
09.11.2018 11:00:00 13,2 8,3 16,3 10,7 14,1 6 4 11 6 S 1013,9 19 55 0,0
09.11.2018 10:00:00 9,4 6,7 10,6 10,8 14,1 4 2 10 5 E 1014,7 7 55 0,0
09.11.2018 09:00:00 5,7 5,0 2,0 10,8 14,1 8 4 13 7 SE 1015,0 13 32 0,0
09.11.2018 08:00:00 3,4 2,8 1,2 10,9 14,1 9 5 15 8 ESE 1015,0 7 0 0,0
09.11.2018 07:00:00 3,0 2,3 0,5 10,9 14,1 6 4 11 6 E 1014,8 8 0 0,0
09.11.2018 06:00:00 3,8 2,8 2,6 11,0 14,1 6 3 14 8 E 1014,1 11 0 0,0
09.11.2018 05:00:00 4,1 3,2 2,5 11,0 14,1 10 6 14 8 E 1013,4 7 0 0,0
09.11.2018 04:00:00 4,6 3,6 1,1 11,1 14,1 5 3 9 5 ESE 1013,4 13 0 0,0
09.11.2018 03:00:00 3,1 1,9 1,0 11,1 14,1 6 3 11 6 ESE 1013,5 13 0 0,0
09.11.2018 02:00:00 3,8 2,6 0,2 11,1 14,1 6 3 11 6 SE 1013,6 20 0 0,0
09.11.2018 01:00:00 2,9 1,6 0,5 11,2 14,2 5 3 14 7 ESE 1014,3 20 0 0,0
09.11.2018 00:00:00 2,9 1,7 1,2 11,2 14,1 8 4 16 9 E 1014,4 9 0 0,0
08.11.2018 23:00:00 4,7 3,2 1,3 11,2 14,2 11 6 16 9 ESE 1014,3 20 0 0,0
08.11.2018 22:00:00 4,6 3,3 0,1 11,2 14,2 10 5 14 8 E 1014,6 20 0 0,0
08.11.2018 21:00:00 3,4 1,4 -0,1 11,1 14,1 4 2 9 5 ESE 1014,8 19 0 0,0
08.11.2018 20:00:00 4,9 3,6 1,3 11,1 14,2 6 3 9 5 SE 1014,8 20 0 0,0
08.11.2018 19:00:00 7,0 4,1 3,2 11,1 14,2 0 0 8 4 N 1014,3 20 0 0,0
08.11.2018 18:00:00 9,1 3,3 5,4 11,1 14,2 4 2 6 4 SSE 1014,0 20 0 0,0
08.11.2018 17:00:00 12,5 2,6 9,7 11,1 14,2 4 2 9 5 ESE 1013,9 20 5 0,0
08.11.2018 16:00:00 13,4 4,8 13,2 11,0 14,1 5 3 12 6 E 1014,1 20 8 0,0
08.11.2018 15:00:00 13,8 5,2 15,0 11,0 14,1 8 5 12 7 NE 1014,8 20 32 0,0
08.11.2018 14:00:00 13,1 5,0 14,2 11,1 14,2 7 4 13 7 E 1015,9 20 17 0,0
08.11.2018 13:00:00 12,5 5,2 14,8 11,1 14,2 6 4 18 10 ESE 1017,0 20 36 0,0

tt = temperature
td = dewpoint
tt 5cm = temperature 5cm
tt -20cm = temperature -20cm
tt -100cm = temperature -100cm
ff = wind speed
fx = gusts
dd = wind direction
ppp = reduced air pressure
vv = visibility
sd = sunshine duration
rr = precipitation

Next stations